CW6020 Weather Reports


time (UTC)temp
F
wind
direction
speed
knots
gust
knots
rain 1hr
in
rain 24hr
in
rain mn
in
humidity
%
barometer
mb
20260502164040 66 128 1.7 3.5 0.00 0.02 0.02 81 1017.2
20260502163030 66 159 1.7 3.5 0.00 0.02 0.02 80 1017.0
20260502162021 66 150 1.7 3.5 0.00 0.02 0.02 81 1016.9
20260502161021 66 160 1.7 3.5 0.00 0.02 0.02 82 1017.2
20260502152020 68 152 1.7 3.5 0.00 0.02 0.02 78 1017.9
20260502151021 67 146 1.7 4.3 0.00 0.02 0.02 79 1017.8
20260502123020 68 153 3.5 6.1 0.00 0.02 0.02 77 1019.3
20260502122020 68 144 2.6 5.2 0.00 0.02 0.02 77 1019.4
20260502121020 68 153 2.6 5.2 0.00 0.02 0.02 78 1019.4
20260502115020 66 105 2.6 5.2 0.00 0.02 0.02 84 1019.8
20260502114020 67 146 3.5 7.0 0.00 0.02 0.02 83 1019.7
20260502113020 67 128 2.6 5.2 0.00 0.02 0.02 84 1019.8
20260502112020 67 124 1.7 5.2 0.00 0.02 0.02 83 1019.7
20260502111020 67 152 2.6 5.2 0.00 0.02 0.02 83 1019.8
20260502110021 67 129 1.7 3.5 0.00 0.02 0.02 83 1019.8
20260502105041 66 151 3.5 5.2 0.00 0.03 0.02 86 1019.8
20260502104041 67 143 3.5 7.0 0.00 0.03 0.02 85 1020.0
20260502103021 66 150 2.6 4.3 0.00 0.03 0.02 86 1020.1
20260502102020 67 119 2.6 5.2 0.00 0.03 0.02 84 1020.2
20260502101020 67 130 3.5 5.2 0.00 0.04 0.02 87 1020.1
20260502091021 64 147 1.7 5.2 0.01 0.04 0.02 94 1020.4
20260502071020 64 106 0.9 3.5 0.00 0.07 0.00 85 1020.3
20260502070020 63 39 0.9 5.2 0.00 0.07 0.00 86 1020.2
20260502065020 63 358 1.7 5.2 0.00 0.07 0.00 85 1020.4
20260502064040 63 347 1.7 4.3 0.00 0.07 0.00 86 1020.4
20260502063020 63 345 2.6 7.8 0.00 0.07 0.00 86 1020.4
20260502062020 62 350 4.3 7.8 0.00 0.07 0.00 87 1020.2
20260502061020 62 348 4.3 7.8 0.00 0.07 0.00 89 1020.1
20260502060020 62 15 1.7 7.0 0.00 0.07 0.00 89 1020.0
20260502055020 62 359 1.7 4.3 0.00 0.07 0.00 89 1020.0
20260502054021 62 0 2.6 6.1 0.00 0.07 0.00 89 1020.0
20260502053041 62 4 3.5 7.0 0.00 0.07 0.00 89 1020.0
20260502052041 62 360 3.5 7.8 0.00 0.07 0.00 88 1019.8
20260502051020 62 344 3.5 8.7 0.00 0.07 0.00 87 1019.8
20260502050021 62 349 6.1 12.2 0.00 0.07 0.00 87 1019.8
20260502045020 62 350 4.3 9.6 0.00 0.07 0.00 87 1019.9
20260502044020 62 350 6.1 9.6 0.00 0.07 0.00 87 1019.9
20260502043020 62 3 3.5 8.7 0.00 0.07 0.00 86 1019.9
20260502042020 62 360 4.3 8.7 0.00 0.07 0.00 87 1020.0
20260502041020 62 355 5.2 9.6 0.00 0.07 0.00 88 1020.0
20260502040020 62 351 4.3 10.4 0.00 0.07 0.00 88 1020.1
20260502035021 62 354 5.2 10.4 0.00 0.07 0.00 89 1020.1
20260502034020 62 341 6.1 10.4 0.00 0.07 0.00 90 1020.1
20260502033020 62 354 6.1 10.4 0.00 0.07 0.00 90 1020.0
20260502032021 62 349 6.1 11.3 0.00 0.07 0.00 90 1019.9
20260502031041 62 353 4.3 9.6 0.00 0.07 0.00 90 1019.9
20260502030022 62 352 6.1 10.4 0.00 0.07 0.00 89 1019.9
20260502025021 62 356 4.3 8.7 0.00 0.07 0.00 88 1020.0
20260502024041 62 348 4.3 9.6 0.00 0.07 0.00 87 1020.1
20260502023021 62 351 6.1 11.3 0.00 0.07 0.00 87 1020.0
20260502022021 62 346 7.8 13.9 0.00 0.07 0.00 86 1020.1
20260502021021 62 345 7.0 12.2 0.00 0.07 0.00 85 1020.2
20260502020021 62 355 6.1 10.4 0.00 0.07 0.00 86 1020.3
20260502015021 62 350 5.2 10.4 0.00 0.07 0.00 86 1020.4
20260502014021 62 353 6.1 9.6 0.00 0.07 0.00 88 1020.5
20260502013021 62 352 6.1 8.7 0.00 0.07 0.00 88 1020.6
20260502012041 62 349 4.3 11.3 0.00 0.07 0.00 89 1020.6
20260502011021 62 351 7.0 13.0 0.00 0.07 0.00 89 1020.6
20260502010021 62 342 4.3 8.7 0.00 0.07 0.00 89 1020.7
20260502005041 62 344 2.6 5.2 0.00 0.07 0.00 89 1020.8
20260502004021 62 339 3.5 9.6 0.00 0.07 0.00 87 1020.8
20260502003021 62 343 5.2 8.7 0.00 0.07 0.00 87 1020.9
20260502002021 62 352 5.2 7.8 0.00 0.07 0.00 87 1021.0
20260502001021 62 350 3.5 7.0 0.00 0.07 0.00 88 1021.3
20260502000021 61 354 4.3 6.1 0.00 0.07 0.00 89 1021.3
20260501235021 61 350 3.5 6.1 0.00 0.07 0.00 90 1021.4
20260501234021 62 1 3.5 5.2 0.00 0.07 0.00 90 1021.6
20260501233021 62 355 4.3 7.0 0.00 0.07 0.00 90 1021.6
20260501232021 62 354 3.5 7.8 0.00 0.07 0.00 90 1021.7
20260501231021 62 343 5.2 9.6 0.00 0.07 0.00 91 1021.5
20260501230021 62 343 4.3 7.8 0.00 0.07 0.00 90 1021.6
20260501225021 62 345 5.2 8.7 0.00 0.07 0.00 91 1021.6
20260501224021 62 351 3.5 8.7 0.00 0.07 0.00 91 1021.7
20260501223021 62 346 2.6 5.2 0.00 0.07 0.00 91 1021.7
20260501222021 62 4 1.7 6.1 0.00 0.07 0.00 90 1021.8
20260501221021 62 321 2.6 8.7 0.00 0.07 0.00 90 1021.8
20260501215041 62 4 1.7 5.2 0.00 0.07 0.07 90 1022.1
20260501214021 62 359 1.7 4.3 0.00 0.07 0.07 90 1022.0
20260501213021 62 3 2.6 7.0 0.00 0.07 0.07 90 1022.0
20260501212041 62 27 2.6 7.0 0.00 0.07 0.07 90 1022.1
20260501211021 62 357 3.5 9.6 0.00 0.07 0.07 90 1022.2
20260501210021 62 358 1.7 3.5 0.00 0.07 0.07 90 1022.3
20260501205021 62 324 1.7 7.8 0.00 0.07 0.07 90 1022.0
20260501204021 62 350 4.3 12.2 0.00 0.07 0.07 90 1022.0
20260501203021 62 344 2.6 9.6 0.00 0.07 0.07 90 1021.8
20260501202040 62 315 4.3 11.3 0.00 0.07 0.07 90 1021.6
20260501201041 62 307 4.3 8.7 0.00 0.07 0.07 90 1021.5
20260501200021 62 355 5.2 9.6 0.00 0.07 0.07 90 1021.3
20260501195021 62 0 3.5 7.0 0.00 0.07 0.07 89 1021.3
20260501194020 62 351 4.3 10.4 0.00 0.07 0.07 89 1021.0
20260501193021 62 332 1.7 5.2 0.00 0.07 0.07 88 1021.1
20260501192021 62 323 4.3 11.3 0.00 0.07 0.07 88 1021.0
20260501191021 63 173 2.6 7.8 0.00 0.07 0.07 87 1020.9
20260501190021 63 218 2.6 6.1 0.00 0.07 0.07 86 1020.9
20260501185021 63 269 2.6 8.7 0.00 0.07 0.07 86 1020.8
20260501184041 63 294 4.3 9.6 0.00 0.07 0.07 86 1020.8
20260501183020 63 319 2.6 8.7 0.00 0.07 0.07 85 1020.7
20260501182021 63 279 3.5 11.3 0.00 0.07 0.07 84 1020.5
20260501181101 64 348 3.5 11.3 0.00 0.07 0.07 84 1020.4